Satellite-Ground Cal/Val Region Overpasses Predictions

Prediction of Satellite NPP Overpassing Cal/Val Region: PacNW

Region Location: (Latitude: 10.00, Longitude: 139.50) to (Latitude: 22.70, Longitude: 165.60).

Table of predicted overpasses for the next 14.0 days since TLE Epoch: 9/16/2017
Interval Starting Time Starting Location Ending Time Ending Location
1 09/17/2017 03:05:09 ( 10.03, 153.53) 09/17/2017 03:08:44 ( 22.65, 150.53)
2 09/17/2017 15:37:02 ( 22.66, 150.77) 09/17/2017 15:40:37 ( 10.04, 147.77)
3 09/18/2017 02:46:07 ( 10.02, 158.29) 09/18/2017 02:49:43 ( 22.70, 155.27)
4 09/18/2017 15:18:01 ( 22.67, 155.53) 09/18/2017 15:21:36 ( 10.05, 152.52)
5 09/19/2017 02:27:06 ( 10.01, 163.05) 09/19/2017 02:30:42 ( 22.68, 160.03)
6 09/19/2017 14:58:59 ( 22.68, 160.29) 09/19/2017 15:02:35 ( 10.00, 157.27)
7 09/20/2017 02:10:45 ( 19.45, 165.59) 09/20/2017 02:11:40 ( 22.67, 164.79)
8 09/20/2017 03:49:35 ( 10.05, 142.42) 09/20/2017 03:53:04 ( 22.32, 139.51)
9 09/20/2017 14:39:58 ( 22.70, 165.05) 09/20/2017 14:43:34 ( 10.02, 162.03)
10 09/20/2017 16:21:28 ( 22.69, 139.67) 09/20/2017 16:21:39 ( 22.05, 139.51)
11 09/21/2017 03:30:34 ( 10.04, 147.18) 09/21/2017 03:34:09 ( 22.66, 144.18)
12 09/21/2017 16:02:27 ( 22.65, 144.42) 09/21/2017 16:06:02 ( 10.03, 141.41)
13 09/22/2017 03:11:32 ( 10.03, 151.94) 09/22/2017 03:15:07 ( 22.65, 148.94)
14 09/22/2017 15:43:26 ( 22.66, 149.18) 09/22/2017 15:47:01 ( 10.04, 146.17)
15 09/23/2017 02:52:31 ( 10.02, 156.70) 09/23/2017 02:56:07 ( 22.70, 153.68)
16 09/23/2017 15:24:24 ( 22.67, 153.94) 09/23/2017 15:27:59 ( 10.05, 150.93)
17 09/24/2017 02:33:29 ( 10.00, 161.46) 09/24/2017 02:37:05 ( 22.68, 158.44)
18 09/24/2017 15:05:23 ( 22.68, 158.70) 09/24/2017 15:08:59 ( 10.00, 155.68)
19 09/25/2017 02:15:14 ( 12.69, 165.60) 09/25/2017 02:18:04 ( 22.67, 163.20)
20 09/25/2017 03:55:59 ( 10.05, 140.83) 09/25/2017 03:57:36 ( 15.75, 139.51)
21 09/25/2017 14:46:22 ( 22.70, 163.46) 09/25/2017 14:49:58 ( 10.02, 160.44)
22 09/26/2017 03:36:57 ( 10.04, 145.59) 09/26/2017 03:40:32 ( 22.66, 142.58)
23 09/26/2017 14:30:27 ( 11.73, 165.59) 09/26/2017 14:30:56 ( 10.03, 165.20)
24 09/26/2017 16:08:51 ( 22.65, 142.82) 09/26/2017 16:12:26 ( 10.03, 139.82)
25 09/27/2017 03:17:56 ( 10.03, 150.35) 09/27/2017 03:21:31 ( 22.65, 147.34)
26 09/27/2017 15:49:50 ( 22.66, 147.58) 09/27/2017 15:53:25 ( 10.04, 144.58)
27 09/28/2017 02:58:54 ( 10.02, 155.11) 09/28/2017 03:02:30 ( 22.70, 152.09)
28 09/28/2017 15:30:48 ( 22.67, 152.34) 09/28/2017 15:34:23 ( 10.05, 149.34)
29 09/29/2017 02:39:53 ( 10.01, 159.87) 09/29/2017 02:43:29 ( 22.69, 156.85)
30 09/29/2017 15:11:47 ( 22.68, 157.10) 09/29/2017 15:15:22 ( 10.06, 154.10)
31 09/30/2017 02:20:52 ( 10.06, 164.61) 09/30/2017 02:24:27 ( 22.68, 161.61)


NCC Satellite Cal/Val Overpasses Prediction Service
